[[{"header":{"parameterUnit":"m.s-1","parameterCategory":1,"la1":30.2991,"la2":30.254,"lo1":-89.0895,"lo2":-89.0444,"dy":0.0017,"dx":0.0017,"nx":28,"ny":28,"refTime":"2025-04-26T09:00:00:Z","depth":0,"parameterNumber":2,"parameterNumberName":"U-component_of_WINDS"},"data":[0,0,0,0,0,0,0,0,0,0,0,0,0,0,0,0,0,0,0,0,0,0,0,0,0,0,0,0,0,0,0,0,0,0,0,0,0,0,0,0,0,0,0,0,0,0,0,0,0,0,0,0,0,0,0,0,0,0,0.7951,0.7952,0,0.8125,0.8127,0.8129,0.8188,0.8187,0.8186,0.8186,0.8368,0.8373,0.8379,0,0,0,0,0,0,0,0,0,0,0,0,0,0.7668,0.7673,0.795,0.7953,0.7955,0.8125,0.8127,0.813,0.8188,0.8187,0.8186,0.8185,0.8366,0.8372,0.8379,0,0,0,0,0,0,0,0,0,0,0,0,0,0.7811,0.7674,0.795,0.8004,0.8011,0.8125,0.8128,0.813,0.8188,0.8187,0.8186,0.8185,0.8364,0.8372,0.838,0.8453,0,0,0.8405,0.8409,0,0,0,0,0,0,0,0,0.7803,0.7822,0.7994,0.8001,0.8008,0.8134,0.8095,0.8239,0.8188,0.8121,0.8186,0.8184,0.8291,0.8305,0.8341,0.8462,0.847,0.8406,0.8411,0.8415,0.8417,0,0,0,0,0,0,0,0.7793,0.7815,0.802,0.7996,0.8005,0.802,0.8039,0.8122,0.821,0.8127,0.8131,0.8151,0.8295,0.8332,0.8345,0.8472,0.8406,0.8413,0.8418,0.8422,0.8661,0.8662,0,0,0,0,0,0,0.7774,0.7806,0.8014,0.8025,0.7901,0.8026,0.8048,0.8095,0.8209,0.8226,0.8152,0.8153,0.8319,0.8335,0.8352,0.8444,0.8415,0.8422,0.8427,0.866,0.8661,0.8663,0,0,0,0,0,0,0.7768,0.7792,0.8007,0.7917,0.7945,0.8032,0.8084,0.8099,0.8136,0.8228,0.8244,0.8174,0.8318,0.834,0.8427,0.8451,0.8426,0.8434,0.8658,0.866,0.8662,0.863,0,0,0,0,0,0,0.7759,0.7789,0.7818,0.7917,0.795,0.8079,0.8086,0.8103,0.815,0.8153,0.8254,0.8269,0.8319,0.8414,0.8435,0.8462,0.844,0.8656,0.8659,0.8662,0.8629,0.863,0.8632,0,0,0,0,0,0.7749,0.7803,0.7819,0.7844,0.7987,0.808,0.8099,0.8155,0.8152,0.8181,0.824,0.8266,0.8445,0.8423,0.8447,0.8477,0.8655,0.8658,0.8661,0.8628,0.863,0.8632,0,0,0,0,0,0,0.7706,0.7817,0.7836,0.7923,0.7992,0.809,0.8129,0.8155,0.8227,0.8227,0.8294,0.8316,0.8398,0.8446,0.8419,0.8553,0.8551,0.856,0.8518,0.8521,0.8522,0.8508,0.8447,0,0,0,0,0,0.7706,0.7772,0.7866,0.7934,0.7967,0.8041,0.8084,0.8121,0.8195,0.8224,0.829,0.8361,0.8433,0.848,0.8552,0.8636,0.8658,0.8668,0.867,0.867,0.8676,0.8723,0.8729,0.8673,0.8673,0.8673,0,0,0.7708,0.7777,0.7814,0.7926,0.7984,0.805,0.8066,0.8136,0.8186,0.8236,0.8321,0.8371,0.8455,0.8541,0.8582,0.8584,0.8696,0.8674,0.8674,0.868,0.8727,0.8732,0.8737,0.8675,0.8675,0.8675,0,0,0.7745,0.7804,0.7867,0.7923,0.8009,0.8058,0.8073,0.8167,0.8202,0.8288,0.8326,0.8387,0.8511,0.8568,0.8614,0.867,0.8697,0.8692,0.8699,0.8744,0.8748,0.8752,0.8772,0.8778,0.8698,0.8698,0.8698,0,0.7737,0.7838,0.7896,0.7963,0.8011,0.8057,0.8121,0.8173,0.8278,0.831,0.8311,0.8465,0.8525,0.8624,0.8637,0.8673,0.8692,0.8681,0.8743,0.8748,0.8752,0.8771,0.8779,0.8697,0.8697,0.8697,0.8697,0,0.7823,0.7893,0.7933,0.8032,0.8084,0.8149,0.8216,0.8263,0.8294,0.8343,0.843,0.8503,0.859,0.8616,0.8649,0.8719,0.8718,0.8729,0.8729,0.8755,0.8774,0.8782,0.8695,0.8696,0.8696,0.8696,0,0,0.7839,0.7967,0.7981,0.8026,0.8123,0.8178,0.8245,0.8328,0.8366,0.8437,0.8494,0.8596,0.8607,0.8659,0.8698,0.8738,0.8776,0.8745,0.8748,0.8747,0.8857,0.8847,0.8854,0.8794,0.8795,0.8797,0.885,0,0.7888,0.8009,0.8062,0.8158,0.8223,0.8267,0.8325,0.8391,0.8438,0.85,0.8553,0.8623,0.8633,0.8664,0.8705,0.8763,0.8799,0.876,0.8848,0.885,0.8825,0.8865,0.8855,0.8901,0.8858,0.8859,0.886,0,0.7962,0.8031,0.8134,0.8222,0.8251,0.8302,0.8382,0.844,0.8516,0.8547,0.8603,0.864,0.8712,0.8707,0.8806,0.8778,0.8817,0.8851,0.8854,0.8864,0.8856,0.8875,0.8918,0.8924,0.8872,0.8871,0.887,0,0.7962,0.8081,0.8157,0.8194,0.8299,0.8334,0.8379,0.8454,0.85,0.857,0.86,0.8678,0.872,0.8779,0.8836,0.8827,0.893,0.8929,0.8958,0.8956,0.8977,0.8975,0.9026,0.9003,0.9003,0.9003,0.9003,0,0.8011,0.8072,0.8158,0.8205,0.8274,0.8334,0.8401,0.845,0.8515,0.8572,0.8616,0.8668,0.874,0.8802,0.8847,0.8922,0.8941,0.8968,0.898,0.8964,0.8961,0.8991,0.8989,0.9005,0.9004,0.9004,0.9004,0,0.8022,0.8083,0.8169,0.826,0.8285,0.8332,0.841,0.8457,0.8506,0.8577,0.8598,0.8674,0.8749,0.8811,0.891,0.894,0.9018,0.9031,0.8992,0.8998,0.9022,0.9018,0.9093,0.9106,0.9075,0.9075,0.9075,0,0.805,0.8097,0.8193,0.8234,0.8278,0.8344,0.8391,0.8451,0.8498,0.8586,0.8622,0.87,0.8765,0.8883,0.8947,0.9023,0.9038,0.9059,0.905,0.9032,0.9037,0.9033,0.9038,0.906,0.906,0.906,0.906,0,0.8091,0.8118,0.8183,0.8259,0.8313,0.8376,0.8439,0.847,0.8542,0.8593,0.8669,0.8719,0.8819,0.8895,0.8977,0.9025,0.9054,0.9062,0.9072,0.9057,0.9032,0.9045,0.8993,0.906,0.906,0.906,0.906,0.906,0.8111,0.8154,0.8228,0.8299,0.8353,0.8411,0.8459,0.8513,0.8578,0.8663,0.8695,0.8772,0.8845,0.8958,0.9005,0.9067,0.9071,0.9086,0.909,0.9092,0.909,0.9022,0.9082,0.9082,0.9082,0.9082,0.9082,0,0.8153,0.8203,0.8267,0.8354,0.841,0.8431,0.8503,0.8548,0.8615,0.868,0.8743,0.883,0.8904,0.8973,0.905,0.9086,0.9101,0.9104,0.9102,0.9112,0.9082,0.9065,0.909,0.909,0.909,0.909,0.909,0.909,0.8182,0.8257,0.8292,0.8394,0.8443,0.8518,0.8557,0.8611,0.8663,0.8757,0.8818,0.8863,0.893,0.9012,0.908,0.9098,0.9125,0.9124,0.9146,0.9116,0.9115,0.9113,0.9097,0.9129,0.9129,0.917,0.9171,0.9171]},{"header":{"parameterUnit":"m.s-1","parameterCategory":1,"la1":30.2991,"la2":30.254,"lo1":-89.0895,"lo2":-89.0444,"dy":0.0017,"dx":0.0017,"nx":28,"ny":28,"refTime":"2025-04-26T09:00:00:Z","depth":0,"parameterNumber":3,"parameterNumberName":"V-component_of_WINDS"},"data":[0,0,0,0,0,0,0,0,0,0,0,0,0,0,0,0,0,0,0,0,0,0,0,0,0,0,0,0,0,0,0,0,0,0,0,0,0,0,0,0,0,0,0,0,0,0,0,0,0,0,0,0,0,0,0,0,0,0,4.1124,4.1124,0,4.1106,4.1106,4.1106,4.1094,4.1093,4.1093,4.1093,4.1074,4.1073,4.1073,0,0,0,0,0,0,0,0,0,0,0,0,0,4.1145,4.1145,4.1124,4.1124,4.1124,4.1106,4.1106,4.1106,4.1094,4.1093,4.1093,4.1093,4.1074,4.1073,4.1073,0,0,0,0,0,0,0,0,0,0,0,0,0,4.1133,4.1145,4.1124,4.1115,4.1114,4.1106,4.1106,4.1106,4.1094,4.1093,4.1093,4.1093,4.1074,4.1073,4.1073,4.1071,0,0,4.1071,4.107,0,0,0,0,0,0,0,0,4.1133,4.1132,4.1117,4.1116,4.1115,4.1102,4.1106,4.1094,4.1094,4.1101,4.1093,4.1093,4.1083,4.1082,4.1079,4.107,4.107,4.1071,4.107,4.107,4.107,0,0,0,0,0,0,0,4.1134,4.1133,4.1117,4.1117,4.1115,4.1112,4.111,4.1104,4.1093,4.1101,4.11,4.1098,4.1083,4.1079,4.1078,4.1069,4.1071,4.107,4.107,4.1069,4.1057,4.1057,0,0,0,0,0,0,4.1137,4.1133,4.1117,4.1116,4.1124,4.1111,4.1109,4.1106,4.1093,4.1091,4.1098,4.1097,4.108,4.1079,4.1077,4.1074,4.107,4.1069,4.1069,4.1057,4.1057,4.1057,0,0,0,0,0,0,4.1137,4.1135,4.1118,4.1125,4.1122,4.1111,4.1108,4.1106,4.1103,4.1091,4.1089,4.1097,4.108,4.1078,4.1073,4.1073,4.1069,4.1068,4.1057,4.1057,4.1057,4.1067,0,0,0,0,0,0,4.1138,4.1136,4.1136,4.1125,4.1122,4.1115,4.1108,4.1106,4.1102,4.1101,4.109,4.1088,4.108,4.1074,4.1072,4.1072,4.1068,4.1057,4.1057,4.1057,4.1067,4.1068,4.1069,0,0,0,0,0,4.1139,4.1139,4.1136,4.1134,4.1122,4.1115,4.1113,4.1105,4.1102,4.1101,4.1094,4.1088,4.1073,4.1073,4.1071,4.1071,4.1057,4.1057,4.1057,4.1067,4.1068,4.1069,0,0,0,0,0,0,4.115,4.1138,4.1134,4.1131,4.1124,4.1113,4.1112,4.1106,4.11,4.1099,4.1089,4.1086,4.1081,4.1076,4.1076,4.1068,4.1064,4.1064,4.1072,4.1073,4.1074,4.1075,4.1067,0,0,0,0,0,4.1153,4.1149,4.1137,4.1136,4.1133,4.1123,4.1119,4.1114,4.1106,4.1103,4.1095,4.1087,4.108,4.1076,4.107,4.1066,4.1063,4.1065,4.1066,4.1066,4.1066,4.1062,4.1063,4.1058,4.1058,4.1058,0,0,4.1157,4.115,4.1148,4.1138,4.1132,4.1127,4.112,4.1116,4.1112,4.1102,4.1096,4.109,4.108,4.1075,4.1073,4.107,4.1067,4.1067,4.1067,4.1067,4.1063,4.1063,4.1063,4.1058,4.1058,4.1058,0,0,4.1163,4.1157,4.1155,4.1149,4.114,4.1133,4.1132,4.1122,4.1117,4.1111,4.1103,4.1098,4.1087,4.108,4.1076,4.1078,4.1072,4.1076,4.108,4.1076,4.1077,4.1077,4.1077,4.1077,4.1076,4.1076,4.1076,0,4.117,4.1163,4.1154,4.115,4.1145,4.1136,4.1133,4.1127,4.1117,4.1113,4.1111,4.1097,4.109,4.1082,4.1083,4.1079,4.1077,4.1077,4.1077,4.1077,4.1078,4.1077,4.1077,4.1076,4.1076,4.1076,4.1076,0,4.1171,4.1166,4.1165,4.1155,4.115,4.1147,4.1137,4.1133,4.1127,4.112,4.1114,4.1105,4.1096,4.1093,4.1088,4.1085,4.1084,4.1079,4.1075,4.1079,4.1078,4.1078,4.1077,4.1077,4.1076,4.1076,0,0,4.1184,4.1169,4.1168,4.1163,4.1152,4.1148,4.1143,4.1135,4.1131,4.1123,4.1119,4.1109,4.1105,4.1099,4.1093,4.109,4.109,4.1086,4.1085,4.1086,4.1085,4.1088,4.1088,4.1086,4.1086,4.1086,4.1086,0,4.1187,4.1179,4.1171,4.1166,4.116,4.1151,4.1147,4.1139,4.1132,4.1126,4.1118,4.1111,4.1107,4.1103,4.11,4.1091,4.109,4.1091,4.1081,4.1081,4.1083,4.1088,4.1091,4.1091,4.1085,4.1085,4.1085,0,4.1191,4.1184,4.1178,4.1166,4.1164,4.116,4.1151,4.1146,4.1136,4.1131,4.1125,4.1117,4.1111,4.1107,4.1097,4.1098,4.1093,4.1088,4.1088,4.1087,4.1083,4.1086,4.1091,4.1091,4.1085,4.1085,4.1085,0,4.12,4.1189,4.1184,4.118,4.1166,4.1164,4.1158,4.1148,4.1143,4.1135,4.1131,4.1122,4.1117,4.111,4.11,4.1098,4.109,4.1086,4.1085,4.1086,4.1084,4.1084,4.1088,4.1082,4.1082,4.1082,4.1082,0,4.1204,4.1201,4.1187,4.1184,4.118,4.117,4.1165,4.1158,4.115,4.1144,4.1135,4.113,4.1117,4.111,4.1102,4.1095,4.1093,4.1088,4.1086,4.1088,4.1089,4.1085,4.1084,4.1082,4.1082,4.1082,4.1082,0,4.1214,4.1205,4.1198,4.1186,4.1183,4.118,4.1169,4.1165,4.1157,4.115,4.1148,4.1136,4.1127,4.1116,4.1104,4.1098,4.1091,4.1088,4.1095,4.1093,4.1093,4.1093,4.1094,4.1093,4.1088,4.1088,4.1088,0,4.1217,4.1214,4.1202,4.1198,4.1192,4.1186,4.118,4.117,4.1165,4.1153,4.115,4.1141,4.1133,4.1118,4.1108,4.1098,4.1094,4.1095,4.1093,4.1095,4.1093,4.1094,4.1093,4.1096,4.1096,4.1096,4.1096,0,4.1224,4.1219,4.1213,4.1204,4.1198,4.1191,4.1183,4.118,4.1168,4.1162,4.1153,4.1147,4.1134,4.1124,4.1113,4.1105,4.1098,4.1097,4.1096,4.1099,4.1102,4.11,4.1096,4.1097,4.1097,4.1097,4.1097,4.1097,4.123,4.1226,4.1217,4.1209,4.1202,4.1195,4.119,4.1182,4.1175,4.1164,4.1158,4.1149,4.1138,4.1122,4.1115,4.1106,4.1104,4.1103,4.1103,4.1102,4.1103,4.1104,4.1104,4.1104,4.1104,4.1104,4.1104,0,4.1235,4.1228,4.1222,4.1211,4.1205,4.12,4.119,4.1185,4.1177,4.1168,4.116,4.1149,4.1139,4.1128,4.1117,4.1113,4.1109,4.111,4.111,4.1108,4.1106,4.1108,4.1113,4.1113,4.1113,4.1113,4.1113,4.1113,4.1237,4.1231,4.1225,4.1215,4.1208,4.12,4.1195,4.1188,4.118,4.1168,4.1161,4.1153,4.1142,4.1131,4.1121,4.1117,4.1114,4.1115,4.1111,4.1109,4.1108,4.1108,4.1109,4.1115,4.1115,4.1114,4.1114,4.1114]}]]